GW6819 Weather Reports


time (UTC)temp
C
wind
direction
speed
KPH
gust
KPH
rain 1hr
cm
rain 24hr
cm
rain mn
cm
humidity
%
barometer
mb
20260510184131 10 16 3.2 25.7 0.00 0.00 0.00 59 1014.5
20260510183231 10 22 8.0 29.0 0.00 0.00 0.00 58 1014.5
20260510182331 10 22 9.7 38.6 0.00 0.00 0.00 58 1014.6
20260510181431 10 15 6.4 25.7 0.00 0.00 0.00 56 1014.6
20260510180532 11 353 4.8 19.3 0.00 0.00 0.00 56 1014.5
20260510175631 11 335 8.0 25.7 0.00 0.00 0.00 56 1014.6
20260510174731 11 10 8.0 32.2 0.00 0.00 0.00 55 1014.7
20260510173832 11 20 8.0 38.6 0.00 0.00 0.00 57 1014.6
20260510172931 11 14 9.7 38.6 0.00 0.00 0.00 56 1014.8
20260510172031 11 16 8.0 38.6 0.00 0.00 0.00 56 1014.7
20260510171132 11 28 8.0 32.2 0.00 0.00 0.00 56 1014.9
20260510170231 11 6 9.7 35.4 0.00 0.00 0.00 55 1015.0
20260510165332 12 13 9.7 35.4 0.00 0.00 0.00 53 1015.0
20260510164432 12 347 8.0 45.1 0.00 0.00 0.00 53 1015.1
20260510163533 12 343 8.0 25.7 0.00 0.00 0.00 53 1015.1
20260510162631 12 8 9.7 29.0 0.00 0.00 0.00 53 1015.2
20260510161731 12 337 9.7 38.6 0.00 0.00 0.00 53 1015.4
20260510160831 12 335 9.7 38.6 0.00 0.00 0.00 54 1015.3
20260510155931 12 336 11.3 41.8 0.00 0.00 0.00 53 1015.5
20260510155031 12 11 12.9 45.1 0.00 0.00 0.00 54 1015.4
20260510154132 13 5 9.7 41.8 0.00 0.00 0.00 53 1015.6
20260510153234 14 16 8.0 29.0 0.00 0.00 0.00 51 1015.6
20260510152333 13 357 12.9 41.8 0.00 0.00 0.00 52 1015.7
20260510151432 13 16 9.7 41.8 0.00 0.00 0.00 52 1015.8
20260510150531 13 1 9.7 29.0 0.00 0.00 0.00 53 1015.8
20260510145631 13 353 9.7 35.4 0.00 0.00 0.00 54 1016.0
20260510144733 13 359 9.7 48.3 0.00 0.00 0.00 53 1016.0
20260510143831 13 357 11.3 41.8 0.00 0.00 0.00 52 1016.1
20260510142931 13 340 9.7 35.4 0.00 0.00 0.00 52 1016.1
20260510142031 13 352 9.7 32.2 0.00 0.00 0.00 53 1016.3
20260510141131 13 12 9.7 45.1 0.00 0.00 0.00 53 1016.4
20260510135331 13 339 11.3 29.0 0.00 0.00 0.00 55 1016.5
20260510134432 13 350 9.7 32.2 0.00 0.00 0.00 55 1016.5
20260510133533 13 329 9.7 29.0 0.00 0.00 0.00 54 1016.4
20260510132632 13 348 12.9 38.6 0.00 0.00 0.00 54 1016.5
20260510130832 12 336 12.9 35.4 0.00 0.00 0.00 59 1016.6
20260510125931 12 359 9.7 35.4 0.00 0.00 0.00 59 1016.7
20260510125031 12 355 11.3 38.6 0.00 0.00 0.00 59 1016.8
20260510123231 12 326 14.5 41.8 0.00 0.00 0.00 61 1017.0
20260510122331 12 326 12.9 48.3 0.00 0.00 0.00 60 1017.1
20260510121431 12 350 12.9 38.6 0.00 0.00 0.00 59 1017.2
20260510120532 13 356 9.7 38.6 0.00 0.00 0.00 58 1017.1
20260510114732 13 356 9.7 45.1 0.00 0.00 0.00 61 1017.4
20260510113831 13 347 11.3 35.4 0.00 0.00 0.00 59 1017.5
20260510112031 12 335 11.3 32.2 0.00 0.00 0.00 63 1017.6
20260510111131 12 323 12.9 41.8 0.00 0.00 0.00 65 1017.7
20260510110233 12 311 11.3 32.2 0.00 0.00 0.00 64 1017.8
20260510105333 12 343 12.9 35.4 0.00 0.00 0.00 65 1017.8
20260510104431 11 317 14.5 32.2 0.00 0.00 0.00 66 1017.9
20260510103531 11 333 14.5 35.4 0.00 0.00 0.00 67 1018.0
20260510102632 11 345 12.9 45.1 0.00 0.00 0.00 70 1018.1
20260510101731 11 351 11.3 48.3 0.00 0.00 0.00 72 1018.1
20260510095931 10 329 12.9 48.3 0.00 0.00 0.00 73 1018.3
20260510095031 10 321 12.9 54.7 0.00 0.00 0.00 74 1018.3
20260510094131 10 316 12.9 29.0 0.00 0.00 0.00 75 1018.2
20260510093231 10 354 12.9 54.7 0.00 0.00 0.00 77 1018.3
20260510092332 10 344 9.7 45.1 0.00 0.00 0.00 78 1018.3
20260510091432 10 315 9.7 25.7 0.00 0.00 0.00 79 1018.3
20260510090531 10 324 9.7 25.7 0.00 0.00 0.00 79 1018.4
20260510085631 10 320 8.0 35.4 0.00 0.00 0.00 79 1018.5
20260510084732 10 357 9.7 38.6 0.00 0.00 0.00 80 1018.6
20260510083834 10 336 9.7 38.6 0.00 0.00 0.00 80 1018.5
20260510082931 10 326 8.0 25.7 0.00 0.00 0.00 78 1018.6
20260510082031 10 353 8.0 35.4 0.00 0.00 0.00 79 1018.5
20260510081133 9 4 9.7 45.1 0.00 0.00 0.00 79 1018.5
20260510080231 9 336 9.7 45.1 0.00 0.00 0.00 80 1018.6
20260510075331 9 314 9.7 32.2 0.00 0.00 0.00 80 1018.5
20260510074431 9 345 8.0 32.2 0.00 0.00 0.00 81 1018.5
20260510073531 8 320 6.4 25.7 0.00 0.00 0.00 81 1018.5
20260510072632 8 348 8.0 32.2 0.00 0.00 0.00 81 1018.5
20260510070831 8 333 11.3 29.0 0.00 0.00 0.00 83 1018.4
20260509222620 10 335 6.4 41.8 0.00 0.00 0.00 81 1018.7
20260509221720 10 345 3.2 25.7 0.00 0.00 0.00 80 1018.8
20260509220820 10 343 3.2 25.7 0.00 0.00 0.00 79 1018.7
20260509215920 10 347 4.8 25.7 0.00 0.00 0.00 78 1018.6
20260509214120 10 326 6.4 19.3 0.00 0.00 0.00 76 1018.3
20260509213220 11 317 3.2 19.3 0.00 0.00 0.00 74 1018.2
20260509212320 11 335 6.4 22.5 0.00 0.00 0.00 70 1018.0
20260509210520 11 10 6.4 32.2 0.00 0.00 0.00 64 1018.0
20260509205620 11 337 4.8 25.7 0.00 0.00 0.00 61 1017.9
20260509204722 12 345 4.8 25.7 0.00 0.00 0.00 59 1017.8
20260509203820 12 343 6.4 29.0 0.00 0.00 0.00 61 1017.8
20260509202020 13 311 4.8 19.3 0.00 0.00 0.00 59 1017.7
20260509201121 13 345 3.2 32.2 0.00 0.00 0.00 55 1017.6
20260509200221 13 1 3.2 19.3 0.00 0.00 0.00 51 1017.6
20260509195320 13 21 3.2 22.5 0.00 0.00 0.00 50 1017.3
20260509194421 14 20 3.2 19.3 0.00 0.00 0.00 49 1017.2
20260509193521 14 20 3.2 22.5 0.00 0.00 0.00 49 1017.0
20260509192620 15 14 3.2 19.3 0.00 0.00 0.00 48 1016.9
20260509191721 15 22 6.4 29.0 0.00 0.00 0.00 48 1016.9
20260509190820 15 17 3.2 22.5 0.00 0.00 0.00 47 1016.8
20260509185920 16 4 3.2 22.5 0.00 0.00 0.00 46 1016.8
20260509185020 16 354 3.2 19.3 0.00 0.00 0.00 47 1016.7